Zurück zum Katalog

STARLINK-34034

AktivKommunikationVLEO
NORAD 63947·PAYLOAD·🇺🇸 United States

Gestartet May 13, 2025 von Vandenberg Space Force Base

Loading…

Nächste Überflüge (nächste 24 Stunden)

TLE

AktuellSource: CelesTrak SupGP

Epoche: Sep 15, 2026, 03:12 UTC

1 63947C 25098X   26258.13381944  .00006734  00000+0  23426-3 0  2586
2 63947  70.0000 154.9770 0003236 273.3983 141.7851 15.29572746    16

Verfolge STARLINK-34034 in Echtzeit mit AllMySat

Download on the App Store